Regional Weather Roundup
Issued by NWS

Home | Current Version | Previous Version | Text Only | Print | Product List | Glossary On
Versions: 1 2 3 4 5 6 7 8 9 10 11 12 13 14 15 16 17 18 19 20 21 22 23 24 25 26 27 28 29 30 31 32 33 34 35 36 37 38 39 40 41 42 43 44 45 46 47 48
000
ASUS46 KSEW 050310
RWRWA

WASHINGTON REGIONAL WEATHER ROUNDUP
NATIONAL WEATHER SERVICE SEATTLE WA
800 PM PDT FRI SEP 04 2015

NOTE:"FAIR" INDICATES FEW OR NO CLOUDS BELOW 12,000 FEET WITH NO
SIGNIFICANT WEATHER AND/OR OBSTRUCTIONS TO VISIBILITY.

WAZ505-507>509-050400-
SEATTLE, TACOMA, EVERETT, AND VICINITY

CITY           SKY/WX    TMP DP  RH WIND       PRES   REMARKS
EVERETT        MOCLDY    53  46  77 NE6       30.01R
BOEING FIELD   MOCLDY    62  47  57 CALM      29.99S
RENTON         PTCLDY    59  49  69 CALM      29.99R
SEATAC AIRPORT MOCLDY    59  49  69 NE5       30.00R
JBLM-MCCHORD   PTCLDY    59  48  67 N6        29.99R
PUYALLUP       FAIR      54  50  87 CALM      29.99S
BREMERTON      PTCLDY    55  45  67 NE7       30.03R
JBLM-FT LEWIS  PTCLDY    58  48  67 NW9       29.98R
TACOMA NARROWS MOCLDY    58  46  64 N7        30.00S
$$

WAZ001-503-506-510-514-515-050400-
NORTH INTERIOR

CITY           SKY/WX    TMP DP  RH WIND       PRES   REMARKS
BELLINGHAM     MOCLDY    59  49  69 S7        30.00S
FRIDAY HARBOR  PTCLDY    54  45  71 CALM      30.03R
EASTSOUND      PTCLDY    55  48  76 S3        29.99S
PORT ANGELES   CLEAR     54  46  74 W6        30.03R
PORT TOWNSEND  FAIR      57  48  72 NW3       30.00S
NAS WHIDBEY    LGT RAIN  54  52  93 NW7       30.05S
ARLINGTON      CLOUDY    52  45  76 N6        30.01S
BURLINGTON     CLOUDY    54  52  94 W3        30.02S FOG
$$

WAZ020-022-039-040-504-511-512-050400-
SOUTHWEST INTERIOR

CITY           SKY/WX    TMP DP  RH WIND       PRES   REMARKS
SHELTON        CLEAR     56  50  80 NW3       29.98S
OLYMPIA        CLEAR     58  45  62 N3        29.99S
CHEHALIS       CLEAR     57  50  77 VRB3      29.99S
KELSO          NOT AVBL
VANCOUVER      PTCLDY    62  44  51 NW9       29.96R
SCAPPOOSE, OR  PTCLDY    59  46  62 NW6       29.96R
PORTLAND, OR   PTCLDY    63  46  54 W13       29.96R
$$

WAZ021-516-517-050400-
WASHINGTON COAST

CITY           SKY/WX    TMP DP  RH WIND       PRES   REMARKS
FORKS          CLEAR     56  49  77 N6        30.01S
HOQUIAM        PTCLDY    60  49  66 W7        30.00S
ASTORIA, OR    LGT RAIN  59  50  72 N12       30.00R
$$

WAZ019-023-024-040-518-519-050400-
CASCADE MOUNTAINS AND COLUMBIA GORGE

CITY           SKY/WX    TMP DP  RH WIND       PRES   REMARKS
TROUTDALE, OR  PTCLDY    60  45  57 SW5       29.95R
THE DALLES, OR CLOUDY    60  42  51 W9        29.92S
$$

WAZ026-027-041>044-520-521-050400-
EAST SLOPES

CITY           SKY/WX    TMP DP  RH WIND       PRES   REMARKS
OMAK           MOCLDY    64  32  30 N15       29.86S
WENATCHEE      CLOUDY    64  36  35 NW13      29.85S
ELLENSBURG     CLOUDY    58  39  49 NW21      29.87F
YAKIMA         CLOUDY    61  39  44 W8        29.88R
$$

WAZ028-034-035-050400-
COLUMBIA BASIN

CITY           SKY/WX    TMP DP  RH WIND       PRES   REMARKS
EPHRATA        CLOUDY    67  27  22 NW6       29.81F
MOSES LAKE     CLOUDY    65  35  33 W12       29.82S
PASCO          CLOUDY    66  38  35 SW21      29.82F
HERMISTON, OR  LGT RAIN  63  39  41 E8G23     29.86R
$$

WAZ036>038-050400-
NORTHEAST WASHINGTON

CITY           SKY/WX    TMP DP  RH WIND       PRES   REMARKS
SPOKANE GEIGER MOCLDY    63  31  30 N8        29.81F
SPOKANE FELTS  CLOUDY    64  36  35 N3        29.81F
FAIRCHILD AFB  MOCLDY    60  29  31 N8        29.82F
COEURDALENE,ID MOCLDY    61  37  41 N15       29.82F
DEER PARK      PTCLDY    59  31  34 N9        29.84S
$$

WAZ029>033-050400-
SOUTHEAST WASHINGTON

CITY           SKY/WX    TMP DP  RH WIND       PRES   REMARKS
PULLMAN        CLOUDY    60  35  39 W12       29.83S
LEWISTON, ID   CLOUDY    67  34  29 W10       29.78R
WALLA WALLA    CLOUDY    60  41  49 S12       29.84R
PENDLETON, OR  CLOUDY    52  46  80 SE3       29.86R
$$


USA.gov is the U.S. government's official web portal to all federal, state and local government web resources and services.